Wind_Speed
12 11 11 11 10 10 9 9 8 8 8 8 8 8 9 8 7 7 7 6 6 6 6 6 6 6 6 6 7 7 7 7 7 8 8 8 8 8 9 9 10 11 10 10
12 11 11 11 10 10 10 10 9 9 9 8 8 8 9 8 8 8 7 7 6 6 6 6 6 6 6 7 7 8 7 8 8 9 9 10 10 10 10 11 11 11 11 11
12 11 11 11 11 11 11 10 10 10 9 9 9 9 9 9 9 8 8 7 7 7 7 7 7 7 7 7 8 8 9 9 10 10 10 11 12 12 12 11 11 11 11 12
11 11 11 12 11 11 11 11 11 11 11 10 10 9 8 8 8 9 9 8 7 7 7 8 8 8 8 8 8 9 9 10 11 11 12 12 12 13 12 12 12 12 12 12
12 12 12 11 11 11 11 11 11 11 11 10 10 10 9 9 8 9 10 9 9 8 8 9 9 9 9 9 9 9 10 11 12 12 12 12 13 12 12 12 12 12 12 13
12 12 12 11 11 11 11 11 11 11 11 11 10 10 9 9 9 9 9 9 10 10 10 10 10 10 10 11 11 11 11 12 13 13 13 13 13 13 13 13 13 13 13 13
12 12 12 12 12 12 12 12 12 12 12 12 11 11 10 10 11 11 11 11 12 12 11 12 12 12 12 12 12 12 13 13 14 14 14 14 14 14 15 15 15 15 14 14
13 13 13 13 13 13 12 12 13 13 13 13 13 13 12 12 12 13 13 13 13 14 14 14 14 14 14 13 14 14 14 14 15 15 15 14 15 15 16 16 16 15 15 15
14 14 14 14 14 14 13 13 14 14 14 14 14 14 14 13 13 14 15 15 15 15 16 16 16 16 15 15 15 16 16 16 16 16 16 16 16 16 16 16 16 16 16 15
15 15 14 14 14 15 15 14 15 16 16 16 15 15 15 15 15 15 16 17 17 17 17 17 17 17 17 17 17 17 17 17 17 17 17 17 17 18 17 17 17 17 17 17
16 15 15 15 16 16 16 15 16 17 17 17 17 16 16 16 17 17 17 18 18 18 18 18 18 18 18 18 18 18 18 19 18 18 18 19 19 19 19 19 19 19 19 18
17 16 15 16 16 17 17 16 16 17 17 18 18 18 17 17 17 18 18 19 19 19 19 19 19 19 19 19 19 19 19 20 20 19 19 19 20 20 20 20 19 20 20 20
18 18 17 17 16 16 17 18 18 18 18 18 19 19 18 17 18 18 19 19 20 21 21 20 20 20 21 21 21 20 20 21 21 21 21 20 21 21 21 21 21 21 21 21
19 20 19 19 18 17 18 19 19 20 20 20 19 20 19 19 19 19 20 20 21 21 21 21 21 21 21 22 22 22 21 22 22 22 22 22 22 23 23 22 23 23 22 22
21 21 21 21 20 20 19 19 20 21 21 21 21 21 20 20 21 21 21 22 22 22 22 22 21 22 22 22 22 23 22 23 23 23 24 24 24 24 24 24 24 24 24 23
21 22 22 22 22 22 21 20 20 21 22 22 22 21 21 21 21 21 22 22 22 22 23 22 22 22 22 22 23 23 24 24 24 25 26 26 26 25 25 24 25 25 25 25
22 23 23 23 23 23 22 21 21 21 22 23 22 21 22 22 22 22 22 23 23 23 23 23 22 22 23 23 23 24 24 25 26 26 26 26 26 26 25 25 26 26 26 26
23 23 23 23 23 24 22 22 22 22 22 23 22 21 22 23 23 23 23 23 24 23 23 24 23 23 23 24 24 26 26 26 26 27 27 27 27 27 27 27 27 27 27 26
25 24 25 24 23 23 22 22 22 23 23 23 23 23 23 23 24 24 24 24 24 24 24 24 24 25 25 25 26 26 26 26 27 28 28 29 28 28 28 28 29 28 28 27
26 26 26 25 25 24 23 23 24 25 24 24 24 24 24 24 24 24 24 25 25 25 26 26 27 27 27 27 27 28 28 29 29 29 29 29 30 29 29 29 29 28 28 28
27 27 27 26 26 25 24 24 24 24 24 25 25 25 25 25 24 24 25 25 25 26 26 27 28 28 28 28 28 29 30 30 30 30 30 30 30 29 29 29 29 28 28 28
28 28 27 27 27 25 25 25 25 24 25 25 25 26 26 26 26 26 26 27 27 27 27 28 28 29 29 30 30 30 31 31 30 30 30 30 30 30 30 29 29 29 28 28
29 28 28 28 27 27 26 26 26 26 25 25 26 26 27 27 27 27 28 28 28 28 28 29 29 30 30 31 31 31 31 31 31 31 31 31 31 30 30 30 30 30 29 29
30 29 29 29 27 27 28 28 28 28 28 27 27 27 27 28 28 28 29 29 29 29 29 30 30 31 31 32 32 32 32 32 32 32 32 32 32 32 32 31 31 31 31 30
30 30 30 30 29 29 29 29 29 29 29 29 29 29 30 31 30 30 31 30 31 30 31 32 32 32 32 33 33 33 33 33 33 33 33 33 32 32 33 32 32 32 31 31
30 30 30 30 30 30 30 29 30 30 30 30 31 31 31 32 32 33 33 33 32 32 33 33 33 34 33 34 34 33 34 34 33 33 34 34 33 33 33 33 32 32 32 31
Wind_Direction
261 263 264 265 266 265 265 267 268 269 269 266 264 266 271 268 271 277 278 279 283 289 292 296 303 307 304 304 305 308 310 311 313 314 313 313 313 311 310 309 309 311 310 311
259 260 260 261 261 260 261 263 266 267 269 267 263 263 267 266 267 273 278 275 274 281 289 291 293 294 298 302 305 307 308 309 311 312 312 309 307 307 307 305 305 306 306 306
259 260 259 258 257 256 257 261 265 268 267 265 262 261 265 268 266 267 273 275 274 276 284 291 290 291 295 300 301 304 308 309 308 308 307 306 305 306 305 302 302 303 304 305
256 258 258 258 257 256 256 260 264 265 268 266 265 265 262 267 269 268 269 270 273 278 282 285 285 286 291 293 296 303 307 307 306 303 303 303 303 303 303 302 300 302 302 302
254 256 258 257 258 261 261 261 263 265 269 269 268 269 260 262 268 269 268 270 275 277 280 284 285 285 287 291 293 299 302 302 303 302 302 302 303 303 304 302 299 300 301 300
253 254 254 256 259 261 262 260 261 264 266 270 272 269 261 262 267 269 269 270 273 274 277 278 280 282 285 287 290 292 295 298 300 301 301 302 301 301 302 301 299 299 300 299
250 250 252 254 256 259 262 261 261 263 267 272 271 270 266 266 268 270 272 273 273 274 276 279 280 284 285 286 286 287 290 294 298 299 298 298 298 299 299 298 297 298 298 297
251 251 253 253 255 259 262 262 262 265 270 273 270 269 272 270 269 268 271 272 272 276 278 279 282 284 285 286 286 287 289 292 295 297 298 297 297 299 299 297 296 296 295 295
251 253 255 255 255 258 260 262 265 267 272 273 274 273 271 269 270 271 272 273 274 276 279 281 282 282 282 283 285 287 290 290 292 293 296 296 296 297 297 296 297 297 296 295
250 254 254 256 257 258 260 263 265 267 271 273 275 276 276 276 274 276 276 275 276 275 277 278 280 282 280 280 282 283 286 287 289 292 292 293 294 294 294 294 295 295 294 292
249 251 253 254 257 261 261 262 265 268 272 276 276 277 278 277 276 275 276 277 278 278 277 279 279 280 280 281 282 282 285 285 286 289 290 290 291 291 292 292 292 292 291 290
249 251 252 255 259 262 262 263 267 270 273 276 278 278 279 279 277 276 275 275 278 280 279 280 281 282 281 281 282 284 284 285 285 286 287 287 288 289 289 290 290 290 289 290
251 253 255 257 259 260 261 262 265 269 273 276 278 280 281 280 278 277 276 275 277 278 279 280 281 282 281 282 283 284 285 286 285 285 285 287 287 288 288 288 288 288 288 288
253 256 258 262 263 263 263 265 266 269 272 275 277 279 281 281 280 278 277 277 278 280 279 279 281 281 281 281 282 284 284 286 286 285 285 285 286 287 288 288 287 286 286 286
253 257 259 262 264 266 266 268 268 270 274 276 278 280 281 281 280 279 279 278 278 280 281 280 279 280 279 279 281 283 284 286 287 288 287 286 285 287 287 287 287 285 284 285
256 258 261 262 265 267 268 270 271 271 274 277 278 281 283 281 280 279 279 279 279 281 282 280 277 277 278 280 281 283 283 286 287 289 289 289 287 286 286 287 287 285 284 283
257 260 261 262 265 267 268 272 273 275 275 277 280 280 280 280 280 279 278 278 279 281 281 281 280 278 278 279 280 281 283 285 286 287 289 289 289 288 287 287 287 286 285 284
257 260 263 263 264 267 270 272 274 275 276 278 281 281 279 280 279 279 279 279 280 280 280 281 281 279 279 280 281 282 283 284 286 287 287 287 288 288 287 287 287 287 285 284
256 261 265 265 266 268 270 274 277 277 277 280 280 279 279 279 279 279 279 279 279 279 279 281 282 283 282 282 282 283 283 286 287 287 288 288 287 286 286 286 287 286 285 284
256 260 264 267 269 271 272 275 277 279 279 279 279 277 278 278 278 278 278 279 280 279 280 280 281 283 284 284 284 285 284 286 286 287 288 287 286 286 286 286 286 286 284 282
257 260 264 267 270 272 274 276 277 280 282 281 280 279 280 279 279 280 281 281 281 280 280 281 282 284 286 286 286 287 286 286 286 286 286 286 285 285 285 285 286 286 285 283
259 261 263 266 268 272 273 274 275 279 280 280 280 280 281 281 280 280 281 281 281 280 280 280 280 283 285 287 286 286 286 287 287 287 286 285 284 284 284 284 284 284 283 283
259 261 263 265 269 270 271 272 274 277 278 279 280 280 281 281 281 281 281 282 281 281 281 280 281 283 285 287 287 286 286 286 285 285 285 286 286 285 285 283 283 283 282 280
258 260 262 264 267 270 271 272 274 275 276 278 280 280 280 281 282 282 282 282 281 282 282 283 283 283 285 287 288 287 287 287 285 285 285 286 286 286 284 283 282 282 281 280
258 260 261 263 265 267 269 271 272 274 276 277 280 281 281 282 283 283 284 284 282 281 283 283 284 284 285 286 287 287 287 286 285 284 285 285 284 285 283 281 281 281 281 281
256 259 261 263 265 267 268 270 271 272 274 276 277 279 281 282 282 283 283 284 284 283 282 282 283 285 285 285 286 286 285 286 285 284 284 284 284 284 283 282 280 279 279 279
Height
5848 5849 5849 5850 5850 5851 5851 5851 5851 5851 5851 5852 5852 5852 5852 5852 5852 5851 5851 5851 5850 5850 5849 5848 5847 5847 5846 5846 5845 5844 5843 5842 5842 5841 5840 5839 5838 5837 5836 5835 5834 5833 5831 5830
5846 5846 5847 5847 5848 5848 5848 5849 5849 5849 5849 5849 5850 5850 5850 5850 5850 5850 5849 5849 5849 5848 5847 5847 5846 5845 5845 5844 5843 5843 5842 5841 5840 5839 5838 5837 5836 5835 5834 5833 5831 5830 5829 5828
5843 5844 5844 5845 5845 5845 5846 5847 5847 5847 5847 5847 5848 5849 5848 5848 5848 5848 5848 5847 5847 5847 5846 5845 5844 5844 5843 5842 5841 5841 5840 5839 5838 5837 5836 5835 5834 5833 5831 5830 5829 5828 5827 5826
5839 5841 5841 5842 5842 5843 5843 5844 5845 5845 5845 5845 5846 5846 5846 5846 5846 5846 5846 5845 5845 5844 5844 5843 5843 5842 5841 5840 5839 5839 5838 5837 5836 5835 5834 5833 5831 5830 5829 5827 5826 5825 5824 5823
5837 5838 5838 5839 5840 5840 5841 5841 5842 5842 5842 5843 5843 5843 5845 5844 5844 5844 5843 5843 5843 5842 5842 5841 5840 5840 5839 5838 5837 5836 5835 5835 5833 5832 5831 5830 5828 5827 5826 5824 5823 5822 5821 5820
5834 5835 5835 5836 5837 5837 5838 5839 5839 5839 5840 5840 5841 5841 5841 5841 5841 5841 5841 5841 5840 5840 5839 5838 5838 5837 5836 5836 5835 5834 5833 5832 5831 5829 5828 5827 5825 5824 5823 5821 5820 5819 5818 5816
5831 5832 5832 5833 5834 5834 5835 5836 5837 5836 5837 5838 5838 5837 5839 5838 5838 5838 5838 5838 5837 5837 5836 5835 5834 5834 5833 5832 5832 5831 5830 5829 5828 5826 5825 5824 5822 5821 5819 5818 5816 5815 5814 5813
5828 5829 5830 5830 5831 5832 5832 5833 5834 5834 5834 5834 5834 5834 5835 5835 5835 5835 5835 5834 5834 5833 5833 5832 5831 5831 5830 5829 5828 5827 5826 5825 5824 5823 5821 5820 5819 5817 5816 5814 5813 5812 5810 5809
5825 5826 5827 5827 5828 5829 5829 5829 5831 5831 5830 5831 5831 5831 5831 5831 5832 5831 5831 5830 5830 5829 5829 5828 5828 5827 5826 5825 5824 5823 5823 5821 5820 5819 5818 5816 5815 5813 5812 5810 5809 5808 5806 5805
5821 5822 5823 5824 5824 5825 5826 5826 5827 5827 5826 5826 5827 5827 5828 5828 5828 5827 5827 5826 5826 5825 5825 5824 5823 5822 5822 5821 5820 5819 5818 5817 5816 5814 5813 5812 5810 5809 5807 5806 5805 5804 5802 5801
5817 5819 5820 5820 5820 5821 5822 5823 5822 5822 5823 5823 5823 5826 5824 5823 5823 5823 5822 5822 5821 5820 5820 5819 5818 5818 5817 5816 5815 5814 5814 5813 5811 5810 5809 5807 5806 5804 5803 5802 5800 5799 5798 5797
5813 5814 5815 5816 5817 5817 5817 5818 5819 5819 5819 5818 5818 5822 5819 5819 5818 5818 5818 5817 5816 5815 5815 5814 5813 5813 5812 5811 5810 5809 5808 5807 5806 5805 5803 5802 5801 5800 5798 5797 5795 5794 5793 5792
5808 5810 5811 5811 5814 5813 5813 5813 5814 5814 5814 5814 5814 5817 5815 5814 5814 5813 5813 5812 5811 5810 5809 5809 5808 5807 5806 5806 5805 5804 5803 5802 5800 5799 5798 5796 5795 5794 5793 5791 5790 5788 5787 5786
5804 5805 5806 5807 5807 5807 5808 5808 5809 5809 5808 5809 5809 5810 5810 5809 5808 5808 5807 5807 5806 5805 5804 5804 5803 5802 5801 5800 5799 5798 5797 5796 5794 5793 5792 5791 5790 5788 5787 5785 5784 5783 5781 5780
5798 5800 5800 5801 5802 5802 5803 5803 5803 5804 5804 5804 5804 5804 5804 5803 5803 5802 5802 5801 5800 5799 5798 5798 5797 5796 5795 5794 5793 5792 5791 5789 5788 5787 5786 5784 5783 5782 5780 5779 5778 5776 5775 5774
5793 5794 5795 5796 5796 5797 5797 5798 5798 5798 5798 5798 5798 5798 5798 5797 5796 5796 5796 5795 5794 5794 5793 5792 5791 5790 5789 5788 5787 5786 5785 5783 5782 5780 5779 5777 5776 5775 5773 5772 5771 5769 5768 5766
5787 5788 5789 5790 5791 5791 5792 5793 5793 5793 5793 5792 5792 5793 5791 5791 5790 5790 5789 5789 5788 5787 5786 5786 5784 5784 5783 5782 5781 5780 5778 5777 5775 5774 5772 5770 5769 5767 5766 5764 5763 5762 5760 5759
5781 5782 5783 5784 5785 5785 5789 5787 5787 5787 5786 5786 5786 5786 5785 5785 5784 5783 5783 5782 5781 5781 5780 5779 5778 5777 5776 5775 5774 5773 5771 5770 5768 5766 5765 5763 5761 5760 5758 5756 5755 5754 5752 5751
5775 5776 5777 5778 5778 5779 5781 5781 5780 5780 5780 5780 5779 5779 5778 5778 5778 5777 5776 5776 5775 5774 5773 5772 5771 5770 5769 5768 5766 5765 5763 5762 5761 5759 5757 5755 5754 5752 5750 5749 5747 5745 5744 5743
5768 5769 5771 5771 5772 5773 5776 5775 5773 5774 5774 5774 5772 5772 5771 5771 5771 5771 5770 5769 5768 5767 5766 5765 5764 5763 5761 5760 5758 5757 5755 5754 5752 5751 5749 5747 5745 5744 5742 5740 5739 5737 5736 5735
5761 5763 5764 5765 5765 5766 5768 5767 5767 5768 5768 5767 5765 5765 5764 5764 5764 5763 5762 5761 5761 5760 5759 5757 5756 5755 5754 5752 5750 5749 5747 5745 5744 5742 5740 5738 5737 5735 5733 5732 5730 5729 5727 5726
5754 5755 5757 5757 5758 5762 5761 5760 5761 5761 5760 5759 5758 5758 5757 5757 5756 5755 5755 5754 5753 5752 5751 5750 5748 5747 5745 5744 5742 5741 5739 5737 5735 5733 5731 5730 5728 5726 5725 5723 5722 5720 5719 5718
5747 5749 5749 5751 5753 5753 5753 5753 5753 5752 5752 5752 5751 5751 5750 5749 5749 5748 5747 5746 5745 5744 5743 5742 5740 5739 5737 5735 5733 5732 5730 5728 5726 5724 5722 5720 5719 5717 5715 5714 5713 5712 5710 5709
5739 5740 5742 5743 5744 5745 5745 5744 5745 5745 5745 5744 5744 5743 5742 5742 5741 5740 5739 5738 5736 5735 5734 5733 5731 5730 5728 5726 5724 5723 5721 5719 5717 5715 5713 5711 5710 5708 5706 5705 5704 5703 5701 5700
5731 5732 5733 5734 5735 5736 5736 5736 5736 5737 5736 5736 5736 5735 5734 5733 5732 5731 5730 5729 5727 5726 5725 5724 5722 5721 5719 5717 5715 5713 5711 5710 5708 5706 5704 5702 5700 5698 5696 5695 5694 5693 5692 5691
5722 5724 5725 5726 5727 5727 5728 5728 5728 5728 5728 5728 5727 5727 5726 5724 5723 5722 5721 5720 5718 5717 5716 5714 5713 5711 5709 5707 5706 5704 5702 5700 5698 5696 5694 5692 5691 5689 5687 5686 5685 5683 5682 5681